Flag for Pakistan Weather past 2 weeks in Sargodha, Pakistan

Now
77 °F

Clear.


Feels Like: 78 °F
Forecast: 73 / 98 °F
Wind: No wind

Location: Lahore Airport

Current Time: Oct 2, 2014 at 5:34:45 AM

Latest Report: Oct 2, 2014 at 4:55 AM


Visibility: 2 mi

Pressure: 29.86 "Hg

Humidity: 83%

Dew point: 72 °F

Location of SargodhaLocation

Historic Weather in Sargodha — Graph

°F

Sargodha temperature yesterday

Maximum temperature yesterday: 95 °F (at 12:59 PM)
Minimum temperature yesterday: 77 °F (at 3:55 AM)
Average temperature yesterday: 85 °F

Past Weeks' High & Low Weather Summary

 TemperatureHumidityPressure
High99 °F (Sep 22, 3:29 PM)94% (Sep 23, 5:00 AM)29.92 "Hg (Sep 23, 5:00 AM)
Low75 °F (Sep 21, 2:55 AM)37% (Sep 26, 3:55 PM)29.59 "Hg (Sep 17, 4:25 AM)
Average86 °F66%29.74 "Hg
* Reported Sep 17 4:25 AM — Oct 2 4:25 AM, Sargodha, Weather by CustomWeather, © 2014

Note: Actual official high and low records may vary slightly from our data, if they occured in-between our weather recording intervals... More about our weather records

Advertising

Sargodha weather history for previous 24 hours

 ConditionsComfort  
Time TempWeatherWind HumidityBarometerVisibility
4:25 AM
Oct 2
77 °FClear.3 mph83%29.86 "Hg2 mi
3:55 AM77 °FClear.3 mph83%29.86 "Hg2 mi
3:25 AM77 °FClear.No wind83%29.86 "Hg2 mi
2:55 AM77 °FClear.No wind83%29.86 "Hg2 mi
2:25 AM79 °FClear.No wind79%29.86 "Hg2 mi
1:55 AM79 °FClear.No wind79%29.86 "Hg2 mi
1:25 AM81 °FClear.No wind74%29.86 "Hg2 mi
12:55 AM81 °FClear.3 mph74%29.86 "Hg2 mi
12:25 AM81 °FClear.3 mph74%29.86 "Hg2 mi
11:55 PM
Oct 1
81 °FClear.5 mph74%29.89 "Hg2 mi
11:25 PM81 °FPassing clouds.3 mph79%29.89 "Hg2 mi
11:00 PM82 °FPassing clouds.3 mph70%29.89 "Hg2 mi
9:55 PM82 °FPassing clouds.6 mph70%29.89 "Hg2 mi
9:25 PM82 °FPassing clouds.5 mph70%29.89 "Hg2 mi
8:55 PM82 °FPassing clouds.5 mph70%29.89 "Hg2 mi
8:25 PM84 °FPassing clouds.6 mph66%29.89 "Hg2 mi
7:55 PM84 °FPassing clouds.6 mph66%29.86 "Hg2 mi
7:25 PM84 °FPassing clouds.5 mph62%29.86 "Hg2 mi
6:55 PM86 °FPassing clouds.5 mph59%29.86 "Hg2 mi
6:25 PM86 °FPassing clouds.5 mph55%29.83 "Hg2 mi
5:55 PM88 °FPassing clouds.5 mph52%29.83 "Hg2 mi
5:25 PM88 °FScattered clouds.5 mph49%29.83 "Hg2 mi
4:55 PM88 °FScattered clouds.No wind49%29.83 "Hg2 mi
4:25 PM90 °FScattered clouds.6 mph49%29.83 "Hg2 mi
3:55 PM90 °FScattered clouds.10 mph49%29.83 "Hg2 mi
3:29 PM93 °FPartly sunny.5 mph49%29.83 "Hg2 mi
2:55 PM93 °FPartly sunny.5 mph49%29.83 "Hg3 mi
2:29 PM95 °FScattered clouds.3 mph47%29.83 "Hg5 mi
1:59 PM95 °FScattered clouds.3 mph47%29.83 "Hg5 mi
12:59 PM95 °FScattered clouds.6 mph44%29.89 "Hg5 mi
12:29 PM93 °FPassing clouds.6 mph49%29.89 "Hg5 mi
11:59 AM93 °FPassing clouds.6 mph49%29.89 "Hg5 mi
11:29 AM91 °FClear.8 mph56%29.92 "Hg4 mi
10:59 AM90 °FClear.8 mph59%29.92 "Hg4 mi
10:29 AM90 °FClear.6 mph59%29.92 "Hg4 mi
9:59 AM90 °FClear.6 mph59%29.92 "Hg4 mi
9:29 AM88 °FClear.6 mph62%29.92 "Hg4 mi
8:55 AM86 °FClear.6 mph66%29.92 "Hg4 mi
8:25 AM82 °FClear.5 mph74%29.92 "Hg3 mi
7:55 AM81 °FClear.7 mph79%29.92 "Hg3 mi
7:25 AM79 °FClear.5 mph84%29.92 "Hg3 mi
6:30 AM77 °FClear.5 mph83%29.89 "Hg3 mi
Weather by CustomWeather, © 2014

See weather overviewHow to use our weather pages